FENGYUN 1C DEB, 32128

Orbit data source: Space-Track

FENGYUN 1C DEB, 32128 is space debris in SSO originally from a launch on Mon, 10 May 1999 UTC launched from the Taiyaun Space Center, China (TSC). Fengyun 1C debris stems from the Chinese weather satellite Fengyun-1C, which was intentionally destroyed by a Chinese anti-satellite missile in 2007. This event dramatically increased the amount of space debris, with thousands of trackable fragments posing hazards to satellites and human spaceflight. The Fengyun 1C debris cloud has become a focal point in discussions about space sustainability and the need for international regulations to prevent the creation of new debris.

Loading next visibility...
Identifier
32128, 1999-025CRW
Orbit
SSO
Country
Flag of CNCN / PRC
Related business
Manufacturer
Unknown
Mission
Spacecraft
Bus & Motor
Unknown
Mass
Unknown
Launch date (UTC)
1999-05-10 (27 years ago)
Launch vehicle
Unknown
Launch site
Taiyaun Space Center, China (TSC)
Object type
Payload
Rocket body
Debris
Shape & HBR
Unknown shape, 0.1 m
Radar Cross Section
Small (<0.1 m²)

Expand to show TLE details & history
Last TLE update: 18 hours ago

TLE from 18 hours ago
0 FENGYUN 1C DEB
1 32128U 99025CRW 26122.57633903  .00001252  00000-0  50533-3 0  9999
2 32128  99.0079 170.9690 0396117 196.2682 162.5457 13.94599768649487
Epoch: 2026-05-02T13:49Z
TLE epoch observation values (Epoch: 2026-05-02T13:49:55.692Z)
Latitude
0.00002°
Longitude
102.99469°
Altitude
1,191.955 km
Speed
7.119 km/s
True Right ascension
11h 23m 52s
True Declination
0° 00' 00"
Sunlit
Object was in full shadow at epoch
Visualization orbit readout
Latitude
Unknown
Longitude
Unknown
Altitude
Unknown
Speed
Unknown
Apparent Right ascension
Unknown
Apparent Declination
Unknown
Sunlit
N/A
Visualization observer readout
Local Sidereal Time
15:23:32
Azimuth
Unknown
Elevation
Unknown
Doppler factor
Unknown
Orbital elements
Apogee altitude
1,198.442 km
Perigee altitude
621.07 km
Semi-major axis
7,287.893 km
Eccentricity
0.03961
Inclination
99.0079°
RAAN
170.969°
Arg. of periapsis
196.2682°
True anomaly
163.84558°
Mean anomaly
162.5457°
Eccentric anomaly
163.20162°
Mean motion
3.48851 °/min
Orbital period
103.2 mins
BSTAR
0.00050533
Loading maneuver chart data...
Computing Atmospheric mass density...

Documentation

Showing up to 5 results
|